COSMOS 1275 DEB, 17638

Orbit data source: Space-Track

COSMOS 1275 DEB, 17638 is space debris in LEO originally from a launch on Thu, 04 Jun 1981 UTC launched from the Plesetsk Missile And Space Complex (PKMTR). Debris objects in space refer to the collection of defunct objects orbiting the Earth. Examples of debris include non-operational satellites, rocket bodies, and fragments generated from explosions, collisions, or faulty payload assembly.

Loading next visibility...
Identifier
17638, 1981-053LH
Orbit
LEO
Country
Flag of CISCIS
Related business
Manufacturer
Unknown
Mission
Spacecraft
Bus & Motor
Unknown
Mass
Unknown
Launch date (UTC)
1981-06-04 (45 years ago)
Launch vehicle
Unknown
Launch site
Plesetsk Missile And Space Complex (PKMTR)
Object type
Payload
Rocket body
Debris
Shape & HBR
Unknown shape, 0.1 m
Radar Cross Section
Small (<0.1 m²)

Expand to show TLE details & history
Last TLE update: 7 hours ago

TLE from 7 hours ago
0 COSMOS 1275 DEB
1 17638U 81053LH  25349.98092788  .00001425  00000-0  14650-2 0  9996
2 17638  82.9910  63.0698 0103125  20.3101 161.0078 13.73243875 19777
Epoch: 2025-12-15T23:32Z
TLE epoch observation values (Epoch: 2025-12-15T23:32:32.168Z)
Latitude
-1.80994°
Longitude
165.28552°
Altitude
1,063.024 km
Speed
7.285 km/s
True Right ascension
16h 13m 09s
True Declination
-1° 47' 58"
Sunlit
Object was in daylight at epoch
Visualization orbit readout
Latitude
Unknown
Longitude
Unknown
Altitude
Unknown
Speed
Unknown
Apparent Right ascension
Unknown
Apparent Declination
Unknown
Sunlit
N/A
Visualization observer readout
Local Sidereal Time
05:17:13
Azimuth
Unknown
Elevation
Unknown
Doppler factor
Unknown
Orbital elements
Apogee altitude
1,061.03 km
Perigee altitude
909.164 km
Semi-major axis
7,363.234 km
Eccentricity
0.01031
Inclination
82.991°
RAAN
63.0698°
Arg. of periapsis
20.3101°
True anomaly
161.38774°
Mean anomaly
161.0078°
Eccentric anomaly
161.19823°
Mean motion
3.43511 °/min
Orbital period
104.8 mins
BSTAR
0.001465
Loading maneuver chart data...
Computing Atmospheric mass density...
Loading historical data...
Loading historical data...
Loading historical data...
Loading historical data...
Loading historical data...
Loading historical data...
Loading historical data...

Documentation

Showing up to 5 results
|